Regional Weather Roundup
Issued by NWS

Home | Current Version | Previous Version | Graphics & Text | Print | Product List | Glossary On
Versions: 1 2 3 4 5 6 7 8 9 10 11 12 13 14 15 16 17 18 19 20 21 22 23 24 25 26 27
000
ASUS45 KCYS 240810
RWRWY

WYOMING REGIONAL WEATHER ROUNDUP
NATIONAL WEATHER SERVICE CHEYENNE WY
200 AM MDT SUN SEP 24 2017

NOTE:  "FAIR" INDICATES FEW OR NO CLOUDS BELOW 12,000 FEET
WITH NO SIGNIFICANT WEATHER AND/OR OBSTRUCTIONS TO VISIBILITY.

WYZ001-240900-
YELLOWSTONE NATIONAL PARK

CITY           SKY/WX    TMP DP  RH WIND       PRES   REMARKS
LK YELLOWSTONE NOT AVBL
W YELLOWSTONE  NOT AVBL

$$
WYZ002>013-054>058-071-098>099-240900-
NORTHERN WYOMING

CITY           SKY/WX    TMP DP  RH WIND       PRES   REMARKS
JACKSON        FAIR      37  33  85 N16       29.97F WCI  28
CODY           MOCLDY    39  33  79 N5        30.09S
GREYBULL       LGT RAIN  43  41  93 NE5       30.04S
WORLAND        CLOUDY    41  40  96 W5        30.05F
SHERIDAN       CLOUDY    40  39  97 NE5       30.08S
BUFFALO        CLOUDY    38  35  89 N15       30.07S WCI  29
GILLETTE       CLOUDY    39  39 100 NW13      30.04S FOG     WCI  31
HULETT         DRZL/FOG  41  41 100 N7        30.04R VSB 1
NEWCASTLE      CLOUDY    43  41  93 NW7       30.00F

$$
WYZ014>020-022>026-101>103-240900-
CENTRAL WYOMING

CITY           SKY/WX    TMP DP  RH WIND       PRES   REMARKS
BIG PINEY      CLOUDY    39  35  86 E3        29.96S
PINEDALE       PTSUNNY   36  34  93 NW3       29.97S
DUBOIS         CLOUDY    34  32  93 SE6       30.03R WCI  29
LANDER         LGT RAIN  38  37  97 NW5       30.04S WCI  34
RIVERTON       CLOUDY    38  34  85 NE13      30.05S WCI  30
CASPER         CLOUDY    37  36  96 NE10      30.04R WCI  30
DOUGLAS        CLOUDY    41  39  93 N3        30.03R

$$
WYZ021-027>030-104>119-240900-
SOUTHERN WYOMING

CITY           SKY/WX    TMP DP  RH WIND       PRES   REMARKS
EVANSTON       FOG       34  34 100 N5        29.92F VSB 1/4 WCI  30
KEMMERER       FLURRIES  32  32 100 NE9       29.95S WCI  24
FORT BRIDGER   CLOUDY    36  36 100 CALM      29.96S
ROCK SPRINGS   CLOUDY    36  32  85 NE22G30   29.94F WCI  25
DIXON          FAIR      37  34  89 E8        29.91F WCI  30
RAWLINS        CLOUDY    39  36  89 NE15      29.97R WCI  31
SARATOGA       CLOUDY    37  37 100 SE7       29.96S WCI  32
LARAMIE        MOCLDY    39  37  92 S13       29.97S WCI  31
CHEYENNE       CLOUDY    43  42  97 CALM      29.99F FOG
TORRINGTON     CLOUDY    44  43  96 NW8       29.99R
PINE BLUFFS    CLOUDY    43  43 100 MISG      29.97F

$$




USA.gov is the U.S. government's official web portal to all federal, state and local government web resources and services.